[[{"header":{"parameterUnit":"m.s-1","parameterCategory":1,"la1":30.2991,"la2":30.254,"lo1":-89.0895,"lo2":-89.0444,"dy":0.0017,"dx":0.0017,"nx":28,"ny":28,"refTime":"2024-04-12T03:00:00:Z","depth":0,"parameterNumber":2,"parameterNumberName":"U-component_of_WINDS"},"data":[0,0,0,0,0,0,0,0,0,0,0,0,0,0,0,0,0,0,0,0,0,0,0,0,0,0,0,0,0,0,0,0,0,0,0,0,0,0,0,0,0,0,0,0,0,0,0,0,0,0,0,0,0,0,0,0,0,0,1.6596,1.6597,0,1.6626,1.6626,1.6626,1.66,1.6598,1.6597,1.6596,1.6626,1.6628,1.663,0,0,0,0,0,0,0,0,0,0,0,0,0,1.6518,1.652,1.6596,1.6597,1.6597,1.6626,1.6626,1.6626,1.66,1.6598,1.6597,1.6596,1.6626,1.6628,1.663,0,0,0,0,0,0,0,0,0,0,0,0,0,1.655,1.652,1.6596,1.6587,1.6587,1.6626,1.6626,1.6626,1.66,1.6598,1.6597,1.6595,1.6625,1.6628,1.663,1.6679,0,0,1.6638,1.664,0,0,0,0,0,0,0,0,1.6549,1.6553,1.6588,1.6588,1.6587,1.6607,1.6609,1.6644,1.66,1.6595,1.6596,1.6594,1.6621,1.6624,1.6633,1.6681,1.6682,1.6639,1.664,1.6642,1.6642,0,0,0,0,0,0,0,1.6546,1.6552,1.6608,1.6589,1.6588,1.6582,1.6585,1.6616,1.6617,1.6595,1.6593,1.6597,1.6621,1.6631,1.6634,1.6682,1.6639,1.6641,1.6643,1.6644,1.6774,1.6776,0,0,0,0,0,0,1.6545,1.655,1.6607,1.6609,1.6564,1.6585,1.6588,1.6603,1.6616,1.6617,1.6599,1.6596,1.6627,1.6631,1.6635,1.6694,1.6642,1.6644,1.6646,1.6772,1.6774,1.6776,0,0,0,0,0,0,1.6543,1.655,1.6606,1.6579,1.6586,1.6588,1.6605,1.6604,1.6614,1.6619,1.6619,1.6609,1.6626,1.6631,1.6669,1.6695,1.6645,1.6648,1.677,1.6773,1.6775,1.6814,0,0,0,0,0,0,1.6541,1.655,1.6568,1.658,1.6587,1.6639,1.6606,1.6606,1.6619,1.6615,1.6628,1.6629,1.6625,1.6665,1.6672,1.6698,1.665,1.6768,1.6771,1.6774,1.681,1.6817,1.6824,0,0,0,0,0,1.6539,1.6577,1.6569,1.6576,1.661,1.6641,1.6645,1.664,1.6621,1.664,1.6643,1.6628,1.6691,1.6669,1.6676,1.6704,1.6766,1.677,1.6774,1.6807,1.6816,1.6824,0,0,0,0,0,0,1.6569,1.6579,1.657,1.6613,1.6627,1.6636,1.666,1.6649,1.6668,1.6664,1.6656,1.666,1.67,1.6706,1.6681,1.6753,1.6726,1.6731,1.6748,1.6757,1.6763,1.6761,1.6652,0,0,0,0,0,1.658,1.6604,1.6612,1.665,1.6657,1.6657,1.667,1.6665,1.6679,1.6684,1.669,1.6704,1.6727,1.6742,1.6763,1.6811,1.6814,1.6833,1.684,1.6846,1.6851,1.6878,1.6887,1.679,1.679,1.679,0,0,1.6605,1.6613,1.6629,1.6656,1.6666,1.6691,1.6662,1.669,1.6709,1.6688,1.6725,1.673,1.6745,1.6789,1.6808,1.6794,1.6879,1.6851,1.6855,1.6858,1.6884,1.6893,1.6901,1.6793,1.6792,1.6792,0,0,1.6662,1.6671,1.6704,1.6715,1.673,1.673,1.6738,1.675,1.6753,1.679,1.6775,1.6798,1.6837,1.6849,1.686,1.6924,1.6912,1.6931,1.6967,1.6993,1.7001,1.7008,1.7032,1.7041,1.6936,1.6936,1.6936,0,1.6691,1.6729,1.6722,1.6752,1.6765,1.6748,1.6782,1.6793,1.6814,1.6824,1.6808,1.6858,1.6866,1.6913,1.6929,1.6938,1.6948,1.693,1.7001,1.7007,1.7014,1.7037,1.7046,1.6939,1.6938,1.6938,1.6938,0,1.6764,1.679,1.6815,1.6837,1.6853,1.6885,1.6884,1.6901,1.6895,1.6897,1.6935,1.6945,1.6969,1.698,1.6973,1.7026,1.7018,1.7002,1.6974,1.7025,1.7047,1.7056,1.6942,1.6941,1.694,1.694,0,0,1.684,1.6859,1.6869,1.6879,1.6896,1.6916,1.6948,1.6971,1.6987,1.7002,1.7029,1.7064,1.7049,1.7062,1.7057,1.7081,1.7133,1.7062,1.7062,1.7075,1.7193,1.7206,1.7216,1.7125,1.7126,1.7127,1.7192,0,1.6899,1.6954,1.695,1.7002,1.7028,1.7013,1.704,1.7054,1.7057,1.7079,1.7083,1.7108,1.7086,1.7094,1.7117,1.7122,1.7156,1.7117,1.715,1.7152,1.7148,1.7227,1.724,1.7301,1.7201,1.7202,1.7203,0,1.6976,1.6995,1.705,1.7064,1.7074,1.7099,1.7122,1.7143,1.7158,1.7159,1.7174,1.7166,1.7199,1.717,1.7216,1.7189,1.7203,1.7207,1.7209,1.7213,1.7181,1.7234,1.732,1.733,1.7216,1.7215,1.7214,0,1.7028,1.7067,1.7106,1.7115,1.7132,1.715,1.7158,1.7172,1.7187,1.7207,1.7216,1.7239,1.7252,1.7271,1.7269,1.7248,1.7316,1.7287,1.7318,1.7319,1.7334,1.7333,1.7425,1.7341,1.7341,1.7341,1.7341,0,1.7095,1.7129,1.713,1.7153,1.7192,1.7187,1.7226,1.7232,1.7244,1.727,1.7258,1.7281,1.7278,1.7302,1.7301,1.734,1.7345,1.7348,1.7347,1.7349,1.7349,1.7358,1.7354,1.7343,1.7343,1.7342,1.7342,0,1.7159,1.7161,1.7202,1.7215,1.722,1.7248,1.7259,1.7282,1.7285,1.7317,1.7324,1.7329,1.7357,1.7357,1.7389,1.7388,1.7436,1.743,1.7431,1.743,1.7462,1.746,1.7564,1.7578,1.7485,1.7485,1.7486,0,1.7202,1.7229,1.7245,1.7262,1.7271,1.7297,1.7313,1.731,1.7327,1.7347,1.7368,1.7395,1.7416,1.7462,1.7468,1.7493,1.7488,1.7523,1.7492,1.7494,1.749,1.7489,1.7492,1.7529,1.753,1.7531,1.7532,0,1.7279,1.7279,1.7302,1.7326,1.7345,1.7364,1.7381,1.7395,1.7394,1.7414,1.7443,1.746,1.7493,1.752,1.7545,1.7553,1.7543,1.7542,1.7551,1.7553,1.7553,1.7555,1.7449,1.7539,1.7539,1.7538,1.7538,1.7537,1.7335,1.7358,1.7374,1.7401,1.7414,1.7431,1.7453,1.7459,1.7483,1.7511,1.7507,1.754,1.7556,1.7588,1.7599,1.7624,1.7612,1.7625,1.7628,1.7632,1.7636,1.7549,1.7629,1.7628,1.7628,1.7628,1.7628,0,1.7412,1.7422,1.7446,1.7471,1.7493,1.7482,1.75,1.7519,1.7548,1.7564,1.7586,1.762,1.7647,1.7656,1.7682,1.7701,1.7698,1.7709,1.7707,1.771,1.7644,1.7634,1.7711,1.7711,1.7711,1.7711,1.7711,1.7711,1.7455,1.7494,1.7496,1.7542,1.7552,1.7584,1.7596,1.7612,1.7625,1.7664,1.7686,1.7692,1.7706,1.7733,1.7758,1.776,1.7771,1.7784,1.7784,1.7723,1.7714,1.7706,1.7697,1.7786,1.7786,1.7848,1.7848,1.7849]},{"header":{"parameterUnit":"m.s-1","parameterCategory":1,"la1":30.2991,"la2":30.254,"lo1":-89.0895,"lo2":-89.0444,"dy":0.0017,"dx":0.0017,"nx":28,"ny":28,"refTime":"2024-04-12T03:00:00:Z","depth":0,"parameterNumber":3,"parameterNumberName":"V-component_of_WINDS"},"data":[0,0,0,0,0,0,0,0,0,0,0,0,0,0,0,0,0,0,0,0,0,0,0,0,0,0,0,0,0,0,0,0,0,0,0,0,0,0,0,0,0,0,0,0,0,0,0,0,0,0,0,0,0,0,0,0,0,0,-3.4351,-3.4352,0,-3.4417,-3.4417,-3.4418,-3.4425,-3.4424,-3.4423,-3.4423,-3.4488,-3.449,-3.4493,0,0,0,0,0,0,0,0,0,0,0,0,0,-3.4231,-3.4233,-3.4351,-3.4352,-3.4353,-3.4417,-3.4417,-3.4418,-3.4425,-3.4424,-3.4423,-3.4422,-3.4487,-3.449,-3.4493,0,0,0,0,0,0,0,0,0,0,0,0,0,-3.4289,-3.4234,-3.4351,-3.4364,-3.4365,-3.4416,-3.4417,-3.4419,-3.4425,-3.4424,-3.4423,-3.4422,-3.4486,-3.449,-3.4493,-3.4535,0,0,-3.4504,-3.4506,0,0,0,0,0,0,0,0,-3.4285,-3.4293,-3.4361,-3.4363,-3.4365,-3.4412,-3.4399,-3.4458,-3.4425,-3.4402,-3.4423,-3.4422,-3.4463,-3.4469,-3.4483,-3.4539,-3.4541,-3.4505,-3.4507,-3.4508,-3.4509,0,0,0,0,0,0,0,-3.4281,-3.429,-3.4377,-3.4362,-3.4364,-3.4366,-3.4373,-3.441,-3.4438,-3.4404,-3.4405,-3.4413,-3.4464,-3.448,-3.4485,-3.4542,-3.4504,-3.4508,-3.451,-3.4511,-3.4639,-3.464,0,0,0,0,0,0,-3.4275,-3.4287,-3.4375,-3.4379,-3.4322,-3.4369,-3.4377,-3.4398,-3.4437,-3.4442,-3.4414,-3.4413,-3.4474,-3.4481,-3.4487,-3.4541,-3.4508,-3.4512,-3.4514,-3.4637,-3.4639,-3.464,0,0,0,0,0,0,-3.4273,-3.4283,-3.4372,-3.4333,-3.4345,-3.4372,-3.4395,-3.4399,-3.4415,-3.4444,-3.4449,-3.4424,-3.4474,-3.4482,-3.4524,-3.4543,-3.4513,-3.4516,-3.4636,-3.4638,-3.4639,-3.4648,0,0,0,0,0,0,-3.4269,-3.4282,-3.4298,-3.4333,-3.4347,-3.4408,-3.4396,-3.4401,-3.4421,-3.4421,-3.4456,-3.4461,-3.4474,-3.4519,-3.4528,-3.4548,-3.4519,-3.4634,-3.4637,-3.4639,-3.4646,-3.465,-3.4653,0,0,0,0,0,-3.4265,-3.4297,-3.4299,-3.4309,-3.4367,-3.4409,-3.4417,-3.4432,-3.4423,-3.444,-3.4459,-3.4459,-3.454,-3.4523,-3.4533,-3.4554,-3.4633,-3.4636,-3.4639,-3.4645,-3.4649,-3.4653,0,0,0,0,0,0,-3.4261,-3.4302,-3.4304,-3.4349,-3.4376,-3.441,-3.4432,-3.4436,-3.4465,-3.4463,-3.448,-3.4488,-3.453,-3.4546,-3.4527,-3.4599,-3.4586,-3.459,-3.4587,-3.4591,-3.4595,-3.459,-3.4522,0,0,0,0,0,-3.4266,-3.4297,-3.433,-3.4366,-3.438,-3.4403,-3.4422,-3.4432,-3.446,-3.4471,-3.4493,-3.452,-3.4552,-3.4572,-3.4603,-3.4649,-3.4657,-3.4668,-3.4672,-3.4675,-3.4679,-3.4707,-3.4713,-3.4649,-3.4649,-3.4649,0,0,-3.4275,-3.4301,-3.4319,-3.4366,-3.4388,-3.442,-3.4413,-3.4446,-3.447,-3.4476,-3.4518,-3.4535,-3.4567,-3.4612,-3.4632,-3.4626,-3.4699,-3.4678,-3.468,-3.4683,-3.471,-3.4716,-3.4722,-3.4651,-3.4651,-3.4651,0,0,-3.431,-3.4331,-3.4365,-3.4388,-3.4422,-3.4438,-3.4446,-3.4481,-3.4493,-3.4536,-3.4542,-3.457,-3.4624,-3.4647,-3.4666,-3.4712,-3.4714,-3.4721,-3.4739,-3.4766,-3.4771,-3.4776,-3.4794,-3.48,-3.4725,-3.4725,-3.4725,0,-3.4317,-3.4366,-3.4382,-3.4416,-3.4437,-3.4445,-3.448,-3.4501,-3.4543,-3.4558,-3.4551,-3.462,-3.4642,-3.4693,-3.4705,-3.4719,-3.473,-3.4717,-3.477,-3.4774,-3.4779,-3.4796,-3.4803,-3.4726,-3.4726,-3.4725,-3.4725,0,-3.4374,-3.4408,-3.4431,-3.4473,-3.4497,-3.4531,-3.4553,-3.4575,-3.4583,-3.46,-3.4644,-3.4671,-3.4708,-3.4721,-3.4728,-3.4775,-3.477,-3.4766,-3.4753,-3.4785,-3.4802,-3.4809,-3.4727,-3.4726,-3.4726,-3.4726,0,0,-3.4406,-3.4459,-3.4468,-3.4488,-3.4527,-3.4554,-3.4589,-3.4627,-3.4647,-3.4676,-3.4707,-3.4753,-3.4751,-3.4772,-3.4782,-3.4806,-3.4843,-3.4799,-3.48,-3.4808,-3.4898,-3.4902,-3.4909,-3.4845,-3.4846,-3.4847,-3.4896,0,-3.4446,-3.451,-3.4527,-3.4582,-3.4614,-3.4624,-3.4655,-3.4683,-3.47,-3.473,-3.4749,-3.4783,-3.4776,-3.4789,-3.4813,-3.4833,-3.4862,-3.483,-3.4875,-3.4876,-3.4868,-3.4918,-3.4921,-3.4966,-3.4903,-3.4904,-3.4905,0,-3.4501,-3.4533,-3.4592,-3.463,-3.4644,-3.4671,-3.4709,-3.4737,-3.477,-3.4781,-3.4806,-3.4815,-3.4853,-3.4838,-3.4892,-3.487,-3.4889,-3.4902,-3.4905,-3.491,-3.4893,-3.4926,-3.4981,-3.4988,-3.4915,-3.4914,-3.4913,0,-3.4521,-3.4579,-3.4622,-3.4639,-3.4684,-3.4704,-3.4723,-3.4754,-3.4777,-3.4809,-3.4825,-3.486,-3.488,-3.4908,-3.4927,-3.4914,-3.498,-3.4966,-3.4991,-3.4991,-3.5005,-3.5004,-3.5065,-3.5015,-3.5015,-3.5015,-3.5015,0,-3.4565,-3.46,-3.4633,-3.4659,-3.47,-3.4719,-3.4759,-3.4779,-3.4808,-3.4839,-3.4848,-3.4877,-3.4899,-3.4931,-3.4946,-3.4989,-3.4998,-3.5008,-3.5012,-3.5009,-3.5007,-3.5022,-3.502,-3.5017,-3.5016,-3.5016,-3.5016,0,-3.4594,-3.4617,-3.4665,-3.4704,-3.4715,-3.4744,-3.4777,-3.4804,-3.4822,-3.4862,-3.4872,-3.4901,-3.494,-3.4961,-3.5009,-3.5019,-3.5068,-3.5069,-3.5058,-3.5059,-3.5084,-3.5082,-3.5158,-3.5169,-3.511,-3.5111,-3.5111,0,-3.4621,-3.4649,-3.4692,-3.4714,-3.4735,-3.4769,-3.4793,-3.4814,-3.4838,-3.4879,-3.4901,-3.4941,-3.4974,-3.5035,-3.506,-3.5098,-3.5101,-3.5125,-3.5106,-3.5103,-3.5103,-3.5102,-3.5106,-3.5128,-3.5129,-3.5129,-3.5129,0,-3.4666,-3.4677,-3.4711,-3.475,-3.4779,-3.481,-3.4841,-3.4859,-3.4885,-3.4912,-3.4952,-3.4978,-3.5029,-3.5068,-3.5108,-3.5128,-3.5134,-3.5135,-3.5143,-3.514,-3.5133,-3.514,-3.5068,-3.5133,-3.5133,-3.5133,-3.5132,-3.5132,-3.4697,-3.4723,-3.4759,-3.4797,-3.4823,-3.4853,-3.488,-3.4903,-3.4938,-3.4981,-3.4991,-3.5035,-3.5068,-3.5123,-3.5144,-3.5179,-3.5174,-3.5186,-3.5189,-3.5192,-3.5194,-3.5127,-3.5186,-3.5186,-3.5186,-3.5186,-3.5186,0,-3.4744,-3.4768,-3.4803,-3.4848,-3.4879,-3.4882,-3.4917,-3.4943,-3.4981,-3.5013,-3.5046,-3.5094,-3.5133,-3.5162,-3.5202,-3.5225,-3.5228,-3.5235,-3.5234,-3.5239,-3.5194,-3.5184,-3.5231,-3.5231,-3.5231,-3.5231,-3.5231,-3.5231,-3.4773,-3.4819,-3.4834,-3.4894,-3.4917,-3.4961,-3.4981,-3.5009,-3.5034,-3.5088,-3.5121,-3.514,-3.5171,-3.5215,-3.5251,-3.5259,-3.5274,-3.528,-3.5288,-3.5246,-3.5242,-3.5237,-3.5228,-3.5283,-3.5283,-3.533,-3.5331,-3.5331]}]]